Starlink 30496

operational
NORAD ID: 57919 Int'l Des: 2023-147 Owner: SPXS Country: US Constellation: starlink
LEOCIRCULAR

Über Starlink 30496

Beschreibung wird geladen...

Live-Position

3D-Globus wird geladen...

Nächste Überflüge

Höhenverlauf

Altitude vs Time

uPlot chart will show altitude changes over time

Zweizeiliger Elementsatz

1 57919U 23147G 25260.23478306 -.00000562 00000-0 -26532-4 0 9993
2 57919 43.0027 188.7518 0000619 268.4325 91.6447 15.02525999110520
Epoch: 17. Sept. 2025 • Age: 39 hours

Aktueller Status

Höhe 564.6 km
Geschwindigkeit 7.58 km/s
Subsatellitenpunkt -23.63°S, 76.42°E
Startdatum 24. Sept. 2023
Alter 1.9 years
Typ internet

Technische Details

Klassifizierung Payload
Masse 730.00 kg
Trockenmasse 700.00 kg
Gesamtmasse 730.00 kg
Länge 0.30 m
Durchmesser 4.10 m
Spannweite 29.00 m
Form Box + pan
Hersteller SPXS
Bus-Typ Starlink V2M
Phasenstatus In Orbit
Besitzer/Staat SPXS/US

Große Konstellationen

Loading constellations...